Lexington Weather

Lexington, Massachusetts, USA

69°F
8/17/2022 7:33pm 
  • Lexington Conditions: Overcast
  • Temperature: 69.4°F / 20.8°CColder 0.4°F than last hour.
  • Dew Point: 57.2°FDecreased 1.6°Fsince last hour.
  • Relative Humidity: 65%Decreased 3.0% since last hour.
  • Wind: Calm, 10-min avg: Calm, gust: None
  • Barometer: 29.84 inFalling 0.02  inHg/hr Falling Slowly
  • Visibility: 10 miles
  • Rain Today: 0.00 in
  •   

Regional Weather Roundup
for Boston, MA

        
000
ASUS41 KBOX 161210
RWRBOX

REGIONAL WEATHER ROUNDUP
NATIONAL WEATHER SERVICE BOSTON/NORTON MA
800 AM EDT TUE AUG 16 2022

NOTE:  "FAIR" INDICATES FEW OR NO CLOUDS BELOW 12,000 FEET WITH NO 
SIGNIFICANT WEATHER AND/OR OBSTRUCTIONS TO VISIBILITY.

MAZALL-161300-
EASTERN MASSACHUSETTS
  
CITY           SKY/WX    TMP DP  RH WIND       PRES   REMARKS
BOSTON         MOSUNNY   71  56  58 N9        30.06R                  
6HR MIN TEMP:  64; 6HR MAX TEMP:  71;                                

BEVERLY        SUNNY     67  61  81 N7        30.05S                  
LAWRENCE       SUNNY     67  60  78 N5        30.09R                  
BEDFORD        SUNNY     65  58  78 N3        30.05S                  
BLUE HILL      NOT AVBL                                               
NORWOOD        SUNNY     70  62  76 CALM      30.04S                  
MARSHFIELD     PTSUNNY   68  64  88 VRB5G12   30.03F                  
PLYMOUTH       PTSUNNY   69  64  84 NE10      30.04R                  
TAUNTON          N/A    N/A N/A N/A MISG      30.03S                  
NEW BEDFORD    SUNNY     69  65  86 NE8       30.02S                  
$$

MAZALL-161300-
CAPE COD AND THE ISLANDS
  
CITY           SKY/WX    TMP DP  RH WIND       PRES   REMARKS
FALMOUTH       NOT AVBL                                               
HYANNIS        CLOUDY    70  64  81 N7        30.01R                  
CHATHAM        CLOUDY    72  62  71 NE9       30.02R                  
NANTUCKET      MOSUNNY   72  65  78 NE13      29.99S                  
MARTHAS VNYRD  PTSUNNY   72  65  78 NE13G21   30.02R                  
$$
 
MAZALL-161300-
CENTRAL AND WESTERN MASSACHUSETTS
  
CITY           SKY/WX    TMP DP  RH WIND       PRES   REMARKS
WORCESTER      SUNNY     65  54  67 NE7       30.08R                  
6HR MIN TEMP:  60; 6HR MAX TEMP:  65;                                

FITCHBURG      SUNNY     64  52  64 NW3       30.08S                  
ORANGE         SUNNY     61  51  70 NW3       30.09R                  
SPRINGFIELD    PTSUNNY   62  54  74 NE7       30.04R                  
WESTFIELD      SUNNY     65  53  65 VRB5      30.06R                  
NORTH ADAMS    MOSUNNY   59  55  87 CALM      30.08S                  
PITTSFIELD     MOSUNNY   60  55  83 CALM      30.07S                  
$$
 
RIZALL-161300-
RHODE ISLAND
  
CITY           SKY/WX    TMP DP  RH WIND       PRES   REMARKS
PROVIDENCE     MOSUNNY   69  59  70 NE12      30.04S                  
6HR MIN TEMP:  60; 6HR MAX TEMP:  69;                                

NEWPORT        SUNNY     68  63  84 NE10      30.02S                  
BLOCK ISLAND   SUNNY     67  62  84 NE13      30.03R                  
SMITHFIELD     SUNNY     64  59  83 NE9       30.05S                  
WESTERLY       SUNNY     66  59  78 NE6       30.02R                  
$$
 
CTZALL-161300-
CONNECTICUT
  
CITY           SKY/WX    TMP DP  RH WIND       PRES   REMARKS
BRADLEY INTL   PTSUNNY   64  55  72 N9        30.05R                  
6HR MIN TEMP:  56; 6HR MAX TEMP:  64;                                

HARTFORD       SUNNY     65  57  75 N7        30.04R                  
BRIDGEPORT     MOSUNNY   67  57  70 N8        30.02R                  
DANBURY        MOSUNNY   64  58  80 CALM      30.05R                  
GROTON         SUNNY     68  58  70 N7        30.01S                  
NEW HAVEN      MOSUNNY   67  59  75 N12       30.02S                  
CHESTER        FAIR      66  55  68 N5G12     30.03S                  
MERIDEN        SUNNY     65  55  70 VRB6      30.03S                  
WILLIMANTIC    SUNNY     61  55  81 N6        30.04F                  
OXFORD         MOSUNNY   64  56  75 NE8       30.05R                  
$$

MEZ002-015-021-024-NHZ003-005-008-011-012-014-VTZ005-008-161300-
NORTHERN NEW ENGLAND
  
CITY           SKY/WX    TMP DP  RH WIND       PRES   REMARKS
PORTLAND ME    MOSUNNY   66  62  87 VRB6      30.09R                  
6HR MIN TEMP:  58; 6HR MAX TEMP:  66;                                

BANGOR ME      MOSUNNY   63  57  81 N5        30.11R                  
CONCORD NH     SUNNY     60  54  80 CALM      30.09R                  
MANCHESTER NH  MOSUNNY   62  54  74 N5        30.07R                  
NASHUA NH      SUNNY     62  57  83 NW5       30.08S                  
PORTSMOUTH NH  MOSUNNY   65  58  79 NE6       30.07R                  
JAFFREY NH     SUNNY     59  51  75 VRB3      30.10R                  
KEENE NH       SUNNY     56  53  90 CALM        N/A                   
BURLINGTON VT  MOSUNNY   65  54  67 E7        30.08S                  
MT. WASHINGTON MOSUNNY   50  46  87 E15         N/A                   
$$

NYZ052-076-161300-
EASTERN NEW YORK
  
CITY           SKY/WX    TMP DP  RH WIND       PRES   REMARKS
ALBANY         PTSUNNY   65  59  81 NW5       30.06R                  
6HR MIN TEMP:  58; 6HR MAX TEMP:  65;                                

NEW YORK CITY  PTSUNNY   69  57  65 NE6       30.02R                  
6HR MIN TEMP:  67; 6HR MAX TEMP:  70;                                

$$
 
ANZALL-161300-
MARINE OBSERVATIONS
  
STATION/POSITION TIME  TEMP    WIND        PRES    VSBY  WAVE
                       AIR SEA DIR/SP/G                  HT/PER
                 (UTC) (F)     (DEG/KT/KT) (MB)    (MI)  (FT/S)
BOSTON BUOY      NOT AVBL
BUZZARDS BAY     NOT AVBL
NANTUCKET SOUND  NOT AVBL
MASS BAY-STELLWA NOT AVBL
ISLE OF SHOALS   NOT AVBL
S OF BLOCK IS    NOT AVBL
$$

......................KEY.........................
  SKY/WX - SKY CONDITION/PRESENT WEATHER
  TMP    - TEMPERATURE IN FAHRENHEIT
  DWPT   - DEWPOINT IN FAHRENHEIT
  RH     - RELATIVE HUMIDITY IN PERCENT
  WIND   - DIRECTION AND SPEED IN MPH
  PRES   - MEAN SEA LEVEL PRESSURE IN INCHES OF HG
  WCI    - WIND CHILL INDEX
  VSB    - VISIBILITY IN MILES
  HX     - HEAT INDEX
  TC     - TEMPERATURE IN CELSIUS
  VRB    - VARIABLE WIND DIRECTION
  N/A    - NOT AVAILABLE
  
      

Other recent Regional Weather Roundups

Wed Aug 17, 7:10pm

Wed Aug 17, 6:10pm

Wed Aug 17, 5:10pm

Wed Aug 17, 4:10pm

Wed Aug 17, 3:10pm

Wed Aug 17, 2:10pm

Wed Aug 17, 1:10pm

Wed Aug 17, 12:10pm

Wed Aug 17, 11:10am

Wed Aug 17, 10:10am

Wed Aug 17, 9:10am

Wed Aug 17, 8:10am

Wed Aug 17, 7:10am

Wed Aug 17, 6:10am

Wed Aug 17, 5:10am

Wed Aug 17, 4:10am

Wed Aug 17, 3:10am

Wed Aug 17, 2:10am

Wed Aug 17, 1:10am

Wed Aug 17, 12:10am

Tue Aug 16, 11:10pm

Tue Aug 16, 10:10pm

Tue Aug 16, 9:10pm

Tue Aug 16, 8:10pm

Tue Aug 16, 7:10pm

Tue Aug 16, 6:10pm

Tue Aug 16, 5:10pm

Tue Aug 16, 4:10pm

Tue Aug 16, 3:10pm

Tue Aug 16, 2:10pm

Tue Aug 16, 1:10pm

Tue Aug 16, 12:10pm

Tue Aug 16, 11:10am

Tue Aug 16, 10:10am

Tue Aug 16, 9:10am

Tue Aug 16, 7:10am

Tue Aug 16, 6:10am

Tue Aug 16, 5:10am

Tue Aug 16, 4:10am

Tue Aug 16, 3:10am

Tue Aug 16, 2:10am

Tue Aug 16, 1:10am

Tue Aug 16, 12:10am

Mon Aug 15, 11:10pm

Mon Aug 15, 10:10pm

Mon Aug 15, 9:10pm

Mon Aug 15, 8:10pm

Mon Aug 15, 7:10pm

Mon Aug 15, 6:10pm

Mon Aug 15, 5:10pm

Mon Aug 15, 4:10pm

Mon Aug 15, 3:10pm

Mon Aug 15, 2:10pm

Mon Aug 15, 1:10pm

Mon Aug 15, 12:10pm

Mon Aug 15, 11:10am

Mon Aug 15, 10:10am

Mon Aug 15, 9:10am

Mon Aug 15, 8:10am

Mon Aug 15, 7:10am

Mon Aug 15, 6:10am

Mon Aug 15, 5:10am

Mon Aug 15, 4:10am

Mon Aug 15, 3:10am

Mon Aug 15, 2:10am

Mon Aug 15, 1:10am

Mon Aug 15, 12:10am

Sun Aug 14, 11:10pm

Sun Aug 14, 10:10pm

Sun Aug 14, 9:10pm

Sun Aug 14, 8:10pm

Sun Aug 14, 7:10pm

Sun Aug 14, 6:10pm

Sun Aug 14, 5:10pm

Sun Aug 14, 4:10pm

Sun Aug 14, 3:10pm

Sun Aug 14, 2:10pm

Sun Aug 14, 1:10pm

Sun Aug 14, 12:10pm

Sun Aug 14, 11:10am

Sun Aug 14, 10:10am

Sun Aug 14, 9:10am

Sun Aug 14, 8:10am

Sun Aug 14, 7:10am

Sun Aug 14, 6:10am

Sun Aug 14, 5:10am

Sun Aug 14, 4:10am

Sun Aug 14, 3:10am

Sun Aug 14, 2:10am

Sun Aug 14, 1:10am

Sun Aug 14, 12:10am

Sat Aug 13, 11:10pm

Sat Aug 13, 10:10pm

Sat Aug 13, 9:10pm

Sat Aug 13, 8:10pm

Sat Aug 13, 7:10pm

Sat Aug 13, 6:10pm

Sat Aug 13, 5:10pm

Sat Aug 13, 4:10pm

Sat Aug 13, 3:10pm

Sat Aug 13, 2:10pm

Sat Aug 13, 1:10pm

Sat Aug 13, 12:10pm

Sat Aug 13, 11:10am

Sat Aug 13, 10:10am

Sat Aug 13, 9:10am

Sat Aug 13, 8:10am

Sat Aug 13, 7:10am

Sat Aug 13, 6:10am

Sat Aug 13, 5:10am

Sat Aug 13, 4:10am

Sat Aug 13, 3:10am

Sat Aug 13, 2:10am

Sat Aug 13, 1:10am

Sat Aug 13, 12:10am

Fri Aug 12, 11:10pm

Fri Aug 12, 10:10pm

Fri Aug 12, 9:10pm

Fri Aug 12, 8:10pm

Fri Aug 12, 7:10pm

Fri Aug 12, 6:10pm

Fri Aug 12, 5:10pm

Fri Aug 12, 4:10pm

Fri Aug 12, 3:10pm

Fri Aug 12, 2:10pm

Fri Aug 12, 1:10pm

Fri Aug 12, 12:10pm

Fri Aug 12, 11:10am

Fri Aug 12, 10:10am

Fri Aug 12, 9:10am

Fri Aug 12, 8:10am

Fri Aug 12, 7:10am

Fri Aug 12, 6:10am

Fri Aug 12, 5:10am

Fri Aug 12, 4:10am

Fri Aug 12, 3:10am

Fri Aug 12, 2:10am

Fri Aug 12, 1:10am

Fri Aug 12, 12:10am

Thu Aug 11, 11:10pm

Thu Aug 11, 10:10pm

Thu Aug 11, 9:10pm

Thu Aug 11, 8:10pm

Thu Aug 11, 7:10pm

Thu Aug 11, 6:10pm

Thu Aug 11, 5:10pm

Thu Aug 11, 4:10pm

Thu Aug 11, 3:10pm

Thu Aug 11, 2:10pm

Thu Aug 11, 1:10pm

Thu Aug 11, 12:10pm

Thu Aug 11, 11:10am

Thu Aug 11, 10:10am

Thu Aug 11, 9:10am

Thu Aug 11, 8:10am

Thu Aug 11, 7:10am

Thu Aug 11, 6:10am

Thu Aug 11, 5:10am

Thu Aug 11, 4:10am

Thu Aug 11, 3:10am

Thu Aug 11, 2:10am

Thu Aug 11, 1:10am

Thu Aug 11, 12:10am

Wed Aug 10, 11:10pm

Wed Aug 10, 10:10pm

Wed Aug 10, 9:10pm

Wed Aug 10, 8:10pm

Meta data:

ID: 5e01f013-22db-435b-b32f-43f61b94f8b5
Link: https://api.weather.gov/products/5e01f013-22db-435b-b32f-43f61b94f8b5